User: anonymous   Login
Location: Vallejo Observatory
(38.1221°N, 122.2109°W)
Time: 17:59:52
(UTC-07:00)
Language:

MOS 1 Rocket - Orbit

View from above orbital plane
View from above orbital plane
View from above satellite
View from above satellite

Ground track
Ground track

The orbit data is extracted from the following two-line orbital elements,

1 17528U 87018B   16237.44750558  .00000044  00000-0  18734-4 0  9999
2 17528  97.4101 222.9187 0153506 147.2440   7.2138 14.50675617556852
Epoch (UTC): 24 August 2016 10:44:24
Eccentricity: 0.0153506
inclination: 97.4101°
perigee height: 614 km
apogee height: 832 km
right ascension of ascending node: 222.9187°
argument of perigee: 147.2440°
revolutions per day: 14.50675617
mean anomaly at epoch: 7.2138°
orbit number at epoch: 55685

The dashed part of the orbit path shows where the satellite is in the earth's shadow,  

DLR